Weather in Vasilyevo

Russia / Republic of Tatarstan     55°50′12″N   48°42′14″E
temp.,
°C
wind,
m/s
gust,
m/s
humid.,
%
clouds,
%
prec.,
mm/h
press.,
hPa
HPBL,
m
17 august, wed
wed1700:00+17ene227180 0.0 102523
03:00+16ese117852 0.0 102512
06:00+18e22735 0.0 102581
09:00+24e34535 0.0 1024670
12:00+27e44395 0.0 10232061
15:00+27ene443672 0.0 10232237
18:00+24ne36505 0.0 1022182
21:00+19ene356313 0.0 102375
18 august, thu
thu1800:00+17e346794 0.0 102263
03:00+15e22665 0.0 102326
06:00+16ene266215 0.0 1024172
09:00+23e46415 0.0 1024685
12:00+26e56383 0.0 10231691
15:00+26ene66401 0.0 10232035
18:00+23ene584811 0.0 1023415
21:00+18e511510 0.0 1025337
19 august, fri
fri1900:00+14e411500 0.0 1027204
03:00+12e410610 0.0 1029184
06:00+13e512570 0.0 1030341
09:00+20e810360 0.0 10311065
12:00+22ese78300 0.0 10311442
15:00+23ese672881 0.0 10311525
18:00+20ese474184 0.0 1031209
21:00+14e36540 0.0 103285
20 august, sat
sat2000:00+12e22600 0.0 103327
03:00+11ese22680 0.0 103414
06:00+13e22640 0.0 103472
09:00+20ese23420 0.0 1034627
12:00+24ese33320 0.0 10321348
15:00+25e23290 0.0 10311618
18:00+22ene23430 0.0 103079
21:00+17ene11570 0.0 103013
21 august, sun
sun2100:00+15ene11640 0.0 103011
03:00+14ne22690 0.0 103013
06:00+16ene12661 0.0 103061
09:00+23ene33462 0.0 1030559
12:00+27ene23360 0.0 10291684
15:00+28ene23310 0.0 10272339
18:00+25ene23445 0.0 102780
21:00+20ene225530 0.0 102722